Location: Bratsk-Energetik
(56.3300°N, 101.7600°E)
Time: 03:07:04
(UTC+08:00)

ISS - Visible Passes

Search period start: 13 October 2024 00:00
Search period end: 23 October 2024 00:00
Orbit: 411 x 424 km, 51.6° (Epoch: 12 October)

Date Brightness Start Highest point End Pass type
(mag) Time Alt. Az. Time Alt. Az. Time Alt. Az.
19 Oct -1.0 06:59:45 10° S 07:01:50 16° SSE 07:03:55 10° ESE visible
20 Oct -0.9 06:12:19 10° SSE 06:13:36 12° SE 06:14:52 10° ESE visible
21 Oct -1.7 06:58:27 10° SW 07:01:12 24° SSE 07:03:57 10° ESE visible
22 Oct -1.5 06:10:36 11° SSW 06:12:48 19° SSE 06:15:16 10° ESE visible
